| time (UTC) | temp F | wind direction | speed MPH | gust MPH | rain 1hr in | rain 24hr in | rain mn in | humidity % | barometer mb |
| 20260507180214 | 84 | 140 | 2.0 | 9.0 | 0.00 | 0.00 | 0.00 | 15 | 1017.0 |
| 20260507175859 | 84 | 83 | 2.0 | 9.0 | 0.00 | 0.00 | 0.00 | 14 | 1017.1 |
| 20260507175543 | 83 | 24 | 2.0 | 9.0 | 0.00 | 0.00 | 0.00 | 13 | 1017.3 |
| 20260507175226 | 83 | 22 | 3.0 | 9.0 | 0.00 | 0.00 | 0.00 | 12 | 1017.1 |
| 20260507174901 | 82 | 148 | 3.0 | 9.0 | 0.00 | 0.00 | 0.00 | 13 | 1017.3 |
| 20260507174541 | 83 | 211 | 3.0 | 9.0 | 0.00 | 0.00 | 0.00 | 12 | 1017.3 |
| 20260507174220 | 83 | 175 | 3.0 | 8.0 | 0.00 | 0.00 | 0.00 | 13 | 1017.3 |
| 20260507173906 | 84 | 95 | 2.0 | 8.0 | 0.00 | 0.00 | 0.00 | 15 | 1017.4 |
| 20260507173549 | 84 | 113 | 2.0 | 8.0 | 0.00 | 0.00 | 0.00 | 17 | 1017.3 |
| 20260507172927 | 82 | 157 | 2.0 | 8.0 | 0.00 | 0.00 | 0.00 | 13 | 1017.4 |
| 20260507172310 | 83 | 0 | 3.0 | 9.0 | 0.00 | 0.00 | 0.00 | 15 | 1017.3 |
| 20260507171945 | 83 | 0 | 4.0 | 9.0 | 0.00 | 0.00 | 0.00 | 16 | 1017.5 |
| 20260507171628 | 82 | 0 | 5.0 | 9.0 | 0.00 | 0.00 | 0.00 | 17 | 1017.3 |
| 20260507171303 | 82 | 0 | 5.0 | 9.0 | 0.00 | 0.00 | 0.00 | 15 | 1017.5 |
| 20260507170946 | 82 | 119 | 4.0 | 9.0 | 0.00 | 0.00 | 0.00 | 14 | 1017.4 |
| 20260507170629 | 82 | 131 | 3.0 | 9.0 | 0.00 | 0.00 | 0.00 | 16 | 1017.5 |
| 20260507170305 | 82 | 213 | 4.0 | 9.0 | 0.00 | 0.00 | 0.00 | 17 | 1017.4 |
| 20260507165645 | 82 | 145 | 4.0 | 9.0 | 0.00 | 0.00 | 0.00 | 15 | 1017.4 |
| 20260507165322 | 81 | 94 | 3.0 | 9.0 | 0.00 | 0.00 | 0.00 | 16 | 1017.5 |
| 20260507164705 | 81 | 57 | 5.0 | 9.0 | 0.00 | 0.00 | 0.00 | 16 | 1017.6 |
| 20260507164349 | 81 | 132 | 5.0 | 11.0 | 0.00 | 0.00 | 0.00 | 15 | 1017.6 |
| 20260507164026 | 81 | 137 | 4.0 | 11.0 | 0.00 | 0.00 | 0.00 | 15 | 1017.6 |
| 20260507163402 | 80 | 107 | 5.0 | 11.0 | 0.00 | 0.00 | 0.00 | 17 | 1017.7 |
| 20260507163044 | 80 | 142 | 5.0 | 11.0 | 0.00 | 0.00 | 0.00 | 16 | 1017.7 |
| 20260507162719 | 80 | 125 | 4.0 | 11.0 | 0.00 | 0.00 | 0.00 | 16 | 1017.8 |
| 20260507162100 | 80 | 89 | 3.0 | 7.0 | 0.00 | 0.00 | 0.00 | 19 | 1017.8 |
| 20260507161734 | 80 | 98 | 3.0 | 8.0 | 0.00 | 0.00 | 0.00 | 19 | 1017.7 |
| 20260507161408 | 79 | 173 | 3.0 | 8.0 | 0.00 | 0.00 | 0.00 | 19 | 1017.8 |
| 20260507161047 | 79 | 157 | 2.0 | 8.0 | 0.00 | 0.00 | 0.00 | 15 | 1017.8 |
| 20260507160727 | 79 | 140 | 2.0 | 8.0 | 0.00 | 0.00 | 0.00 | 17 | 1017.8 |
| 20260507160402 | 78 | 128 | 2.0 | 8.0 | 0.00 | 0.00 | 0.00 | 15 | 1017.8 |
| 20260507160039 | 78 | 174 | 2.0 | 8.0 | 0.00 | 0.00 | 0.00 | 17 | 1017.8 |
| 20260507155724 | 78 | 153 | 2.0 | 7.0 | 0.00 | 0.00 | 0.00 | 17 | 1017.7 |
| 20260507155410 | 78 | 132 | 3.0 | 7.0 | 0.00 | 0.00 | 0.00 | 17 | 1017.8 |
| 20260507155046 | 78 | 127 | 3.0 | 7.0 | 0.00 | 0.00 | 0.00 | 18 | 1017.8 |
| 20260507154732 | 78 | 145 | 2.0 | 7.0 | 0.00 | 0.00 | 0.00 | 18 | 1017.8 |
| 20260507154411 | 77 | 113 | 1.0 | 6.0 | 0.00 | 0.00 | 0.00 | 18 | 1017.9 |
| 20260507153449 | 76 | 116 | 1.0 | 5.0 | 0.00 | 0.00 | 0.00 | 19 | 1017.8 |
| 20260507153134 | 76 | 136 | 1.0 | 5.0 | 0.00 | 0.00 | 0.00 | 19 | 1017.9 |
| 20260507152811 | 76 | 134 | 1.0 | 5.0 | 0.00 | 0.00 | 0.00 | 20 | 1018.0 |
| 20260507152451 | 75 | 196 | 1.0 | 4.0 | 0.00 | 0.00 | 0.00 | 23 | 1018.0 |
| 20260507152130 | 75 | 159 | 1.0 | 4.0 | 0.00 | 0.00 | 0.00 | 18 | 1018.0 |
| 20260507151508 | 74 | 132 | 1.0 | 4.0 | 0.00 | 0.00 | 0.00 | 20 | 1017.9 |
| 20260507151149 | 74 | 147 | 0.0 | 0.0 | 0.00 | 0.00 | 0.00 | 20 | 1017.9 |
| 20260507150832 | 74 | 146 | 1.0 | 3.0 | 0.00 | 0.00 | 0.00 | 20 | 1017.9 |
| 20260507150509 | 73 | 180 | 0.0 | 2.0 | 0.00 | 0.00 | 0.00 | 20 | 1017.9 |
| 20260507150148 | 73 | 216 | 1.0 | 2.0 | 0.00 | 0.00 | 0.00 | 20 | 1018.0 |
| 20260507145824 | 72 | 230 | 1.0 | 2.0 | 0.00 | 0.00 | 0.00 | 21 | 1018.0 |
| 20260507145506 | 71 | 240 | 1.0 | 2.0 | 0.00 | 0.00 | 0.00 | 21 | 1018.0 |
| 20260507145152 | 70 | 211 | 0.0 | 2.0 | 0.00 | 0.00 | 0.00 | 23 | 1018.1 |
| 20260507144836 | 69 | 241 | 0.0 | 2.0 | 0.00 | 0.00 | 0.00 | 24 | 1018.1 |
| 20260507144521 | 67 | 219 | 0.0 | 2.0 | 0.00 | 0.00 | 0.00 | 24 | 1018.1 |
| 20260507144201 | 66 | 250 | 0.0 | 2.0 | 0.00 | 0.00 | 0.00 | 26 | 1018.1 |
| 20260507143843 | 66 | 229 | 0.0 | 1.0 | 0.00 | 0.00 | 0.00 | 28 | 1018.1 |
| 20260507143520 | 65 | 229 | 0.0 | 1.0 | 0.00 | 0.00 | 0.00 | 29 | 1018.2 |
| 20260507143201 | 64 | 274 | 0.0 | 0.0 | 0.00 | 0.00 | 0.00 | 34 | 1018.2 |
| 20260507142546 | 62 | 275 | 0.0 | 0.0 | 0.00 | 0.00 | 0.00 | 38 | 1018.2 |
| 20260507141928 | 62 | 275 | 0.0 | 0.0 | 0.00 | 0.00 | 0.00 | 39 | 1018.1 |
| 20260507141007 | 61 | 0 | 0.0 | 0.0 | 0.00 | 0.00 | 0.00 | 38 | 1018.1 |
| 20260507140652 | 61 | 0 | 0.0 | 0.0 | 0.00 | 0.00 | 0.00 | 38 | 1018.1 |
| 20260507140330 | 61 | 0 | 0.0 | 0.0 | 0.00 | 0.00 | 0.00 | 40 | 1018.1 |
| 20260507135710 | 60 | 0 | 0.0 | 0.0 | 0.00 | 0.00 | 0.00 | 37 | 1018.0 |
| 20260507135049 | 60 | 0 | 0.0 | 2.0 | 0.00 | 0.00 | 0.00 | 36 | 1017.9 |
| 20260507134727 | 60 | 0 | 0.0 | 2.0 | 0.00 | 0.00 | 0.00 | 35 | 1017.9 |
| 20260507134404 | 60 | 0 | 1.0 | 2.0 | 0.00 | 0.00 | 0.00 | 35 | 1017.9 |
| 20260507133746 | 60 | 0 | 1.0 | 3.0 | 0.00 | 0.00 | 0.00 | 34 | 1017.8 |
| 20260507132823 | 60 | 0 | 2.0 | 3.0 | 0.00 | 0.00 | 0.00 | 34 | 1017.7 |
| 20260507132206 | 60 | 0 | 2.0 | 3.0 | 0.00 | 0.00 | 0.00 | 34 | 1017.6 |
| 20260507131847 | 59 | 0 | 2.0 | 3.0 | 0.00 | 0.00 | 0.00 | 34 | 1017.6 |
| 20260507131529 | 59 | 0 | 1.0 | 3.0 | 0.00 | 0.00 | 0.00 | 33 | 1017.7 |
| 20260507131206 | 59 | 0 | 2.0 | 3.0 | 0.00 | 0.00 | 0.00 | 32 | 1017.7 |
| 20260507130845 | 59 | 0 | 2.0 | 3.0 | 0.00 | 0.00 | 0.00 | 32 | 1017.7 |
| 20260507130530 | 59 | 0 | 1.0 | 3.0 | 0.00 | 0.00 | 0.00 | 33 | 1017.6 |
| 20260507130212 | 59 | 0 | 1.0 | 3.0 | 0.00 | 0.00 | 0.00 | 33 | 1017.6 |
| 20260507125848 | 59 | 0 | 1.0 | 3.0 | 0.00 | 0.00 | 0.00 | 33 | 1017.6 |
| 20260507125529 | 59 | 0 | 1.0 | 3.0 | 0.00 | 0.00 | 0.00 | 33 | 1017.5 |
| 20260507124910 | 59 | 0 | 2.0 | 3.0 | 0.00 | 0.00 | 0.00 | 32 | 1017.5 |
| 20260507124545 | 59 | 0 | 2.0 | 3.0 | 0.00 | 0.00 | 0.00 | 32 | 1017.5 |
| 20260507124221 | 59 | 0 | 2.0 | 3.0 | 0.00 | 0.00 | 0.00 | 32 | 1017.5 |
| 20260507123907 | 60 | 0 | 2.0 | 3.0 | 0.00 | 0.00 | 0.00 | 32 | 1017.5 |
| 20260507123246 | 60 | 0 | 2.0 | 3.0 | 0.00 | 0.00 | 0.00 | 32 | 1017.5 |
| 20260507122932 | 60 | 0 | 2.0 | 3.0 | 0.00 | 0.00 | 0.00 | 33 | 1017.4 |
| 20260507122618 | 60 | 0 | 2.0 | 3.0 | 0.00 | 0.00 | 0.00 | 32 | 1017.4 |
| 20260507122258 | 60 | 0 | 2.0 | 3.0 | 0.00 | 0.00 | 0.00 | 32 | 1017.4 |
| 20260507121936 | 60 | 0 | 2.0 | 4.0 | 0.00 | 0.00 | 0.00 | 32 | 1017.5 |
| 20260507121614 | 60 | 0 | 2.0 | 4.0 | 0.00 | 0.00 | 0.00 | 31 | 1017.5 |
| 20260507120954 | 60 | 0 | 2.0 | 4.0 | 0.00 | 0.00 | 0.00 | 31 | 1017.5 |
| 20260507120637 | 60 | 0 | 2.0 | 4.0 | 0.00 | 0.00 | 0.00 | 31 | 1017.5 |
| 20260507120322 | 60 | 0 | 2.0 | 4.0 | 0.00 | 0.00 | 0.00 | 31 | 1017.4 |
| 20260507120008 | 60 | 0 | 2.0 | 3.0 | 0.00 | 0.00 | 0.00 | 31 | 1017.4 |
| 20260507115648 | 60 | 0 | 1.0 | 3.0 | 0.00 | 0.00 | 0.00 | 31 | 1017.4 |
| 20260507115324 | 61 | 0 | 1.0 | 2.0 | 0.00 | 0.00 | 0.00 | 32 | 1017.4 |
| 20260507115006 | 61 | 0 | 1.0 | 2.0 | 0.00 | 0.00 | 0.00 | 32 | 1017.4 |
| 20260507114639 | 61 | 0 | 1.0 | 3.0 | 0.00 | 0.00 | 0.00 | 31 | 1017.4 |
| 20260507114323 | 61 | 0 | 1.0 | 3.0 | 0.00 | 0.00 | 0.00 | 31 | 1017.4 |
| 20260507114003 | 61 | 0 | 1.0 | 3.0 | 0.00 | 0.00 | 0.00 | 31 | 1017.4 |
| 20260507113646 | 61 | 0 | 1.0 | 3.0 | 0.00 | 0.00 | 0.00 | 32 | 1017.4 |
| 20260507113322 | 61 | 0 | 2.0 | 3.0 | 0.00 | 0.00 | 0.00 | 32 | 1017.4 |
| 20260507112959 | 61 | 0 | 2.0 | 3.0 | 0.00 | 0.00 | 0.00 | 33 | 1017.3 |
| 20260507112638 | 61 | 0 | 2.0 | 3.0 | 0.00 | 0.00 | 0.00 | 34 | 1017.4 |
| 20260507112313 | 61 | 0 | 2.0 | 3.0 | 0.00 | 0.00 | 0.00 | 33 | 1017.4 |
| 20260507111959 | 61 | 0 | 2.0 | 3.0 | 0.00 | 0.00 | 0.00 | 32 | 1017.3 |
| 20260507111338 | 62 | 0 | 2.0 | 3.0 | 0.00 | 0.00 | 0.00 | 34 | 1017.4 |
| 20260507111020 | 62 | 0 | 2.0 | 3.0 | 0.00 | 0.00 | 0.00 | 35 | 1017.5 |
| 20260507110659 | 62 | 0 | 2.0 | 3.0 | 0.00 | 0.00 | 0.00 | 29 | 1017.4 |
| 20260507110338 | 62 | 0 | 2.0 | 3.0 | 0.00 | 0.00 | 0.00 | 29 | 1017.5 |
| 20260507110016 | 62 | 0 | 2.0 | 3.0 | 0.00 | 0.00 | 0.00 | 29 | 1017.5 |
| 20260507105658 | 62 | 0 | 2.0 | 3.0 | 0.00 | 0.00 | 0.00 | 29 | 1017.4 |
| 20260507105340 | 62 | 0 | 2.0 | 3.0 | 0.00 | 0.00 | 0.00 | 29 | 1017.4 |
| 20260507105020 | 62 | 0 | 2.0 | 3.0 | 0.00 | 0.00 | 0.00 | 30 | 1017.4 |
| 20260507104704 | 62 | 0 | 2.0 | 3.0 | 0.00 | 0.00 | 0.00 | 30 | 1017.4 |
| 20260507104350 | 62 | 0 | 2.0 | 3.0 | 0.00 | 0.00 | 0.00 | 29 | 1017.5 |
| 20260507104029 | 62 | 0 | 2.0 | 3.0 | 0.00 | 0.00 | 0.00 | 28 | 1017.4 |
| 20260507103703 | 62 | 0 | 1.0 | 3.0 | 0.00 | 0.00 | 0.00 | 29 | 1017.4 |
| 20260507103348 | 62 | 0 | 1.0 | 3.0 | 0.00 | 0.00 | 0.00 | 30 | 1017.5 |
| 20260507103026 | 63 | 0 | 1.0 | 3.0 | 0.00 | 0.00 | 0.00 | 29 | 1017.4 |
| 20260507102703 | 63 | 0 | 2.0 | 3.0 | 0.00 | 0.00 | 0.00 | 29 | 1017.3 |
| 20260507102041 | 63 | 0 | 1.0 | 3.0 | 0.00 | 0.00 | 0.00 | 28 | 1017.4 |
| 20260507101421 | 63 | 0 | 1.0 | 2.0 | 0.00 | 0.00 | 0.00 | 29 | 1017.3 |
| 20260507101104 | 63 | 0 | 1.0 | 3.0 | 0.00 | 0.00 | 0.00 | 29 | 1017.3 |
| 20260507100440 | 63 | 0 | 2.0 | 3.0 | 0.00 | 0.00 | 0.00 | 30 | 1017.4 |
| 20260507100125 | 63 | 0 | 2.0 | 3.0 | 0.00 | 0.00 | 0.00 | 30 | 1017.2 |
| 20260507095802 | 63 | 0 | 1.0 | 3.0 | 0.00 | 0.00 | 0.00 | 29 | 1017.3 |
| 20260507095444 | 63 | 0 | 1.0 | 3.0 | 0.00 | 0.00 | 0.00 | 30 | 1017.4 |
| 20260507094825 | 63 | 0 | 2.0 | 3.0 | 0.00 | 0.00 | 0.00 | 30 | 1017.2 |
| 20260507094504 | 63 | 0 | 2.0 | 3.0 | 0.00 | 0.00 | 0.00 | 30 | 1017.1 |
| 20260507093847 | 63 | 0 | 1.0 | 3.0 | 0.00 | 0.00 | 0.00 | 31 | 1017.2 |
| 20260507093530 | 63 | 0 | 1.0 | 3.0 | 0.00 | 0.00 | 0.00 | 31 | 1017.2 |
| 20260507093205 | 63 | 0 | 1.0 | 3.0 | 0.00 | 0.00 | 0.00 | 31 | 1017.2 |
| 20260507092539 | 63 | 0 | 1.0 | 3.0 | 0.00 | 0.00 | 0.00 | 31 | 1017.2 |
| 20260507092220 | 63 | 0 | 0.0 | 2.0 | 0.00 | 0.00 | 0.00 | 32 | 1017.2 |
| 20260507091857 | 63 | 0 | 0.0 | 2.0 | 0.00 | 0.00 | 0.00 | 32 | 1017.3 |
| 20260507091534 | 63 | 0 | 0.0 | 0.0 | 0.00 | 0.00 | 0.00 | 33 | 1017.3 |
| 20260507091209 | 63 | 0 | 0.0 | 0.0 | 0.00 | 0.00 | 0.00 | 33 | 1017.2 |
| 20260507090851 | 63 | 0 | 0.0 | 3.0 | 0.00 | 0.00 | 0.00 | 34 | 1017.3 |
| 20260507090535 | 63 | 0 | 1.0 | 3.0 | 0.00 | 0.00 | 0.00 | 34 | 1017.2 |
| 20260507090219 | 63 | 0 | 1.0 | 3.0 | 0.00 | 0.00 | 0.00 | 35 | 1017.2 |
| 20260507085905 | 63 | 0 | 1.0 | 3.0 | 0.00 | 0.00 | 0.00 | 35 | 1017.2 |
| 20260507085549 | 63 | 0 | 1.0 | 3.0 | 0.00 | 0.00 | 0.00 | 35 | 1017.3 |
| 20260507085229 | 63 | 0 | 1.0 | 3.0 | 0.00 | 0.00 | 0.00 | 36 | 1017.3 |
| 20260507084903 | 64 | 0 | 1.0 | 3.0 | 0.00 | 0.00 | 0.00 | 36 | 1017.3 |
| 20260507084546 | 64 | 0 | 1.0 | 2.0 | 0.00 | 0.00 | 0.00 | 36 | 1017.4 |
| 20260507084229 | 64 | 0 | 1.0 | 2.0 | 0.00 | 0.00 | 0.00 | 35 | 1017.2 |
| 20260507083912 | 64 | 0 | 1.0 | 2.0 | 0.00 | 0.00 | 0.00 | 36 | 1017.3 |
| 20260507083250 | 64 | 0 | 1.0 | 3.0 | 0.00 | 0.00 | 0.00 | 36 | 1017.3 |
| 20260507082926 | 64 | 0 | 1.0 | 3.0 | 0.00 | 0.00 | 0.00 | 36 | 1017.3 |
| 20260507082605 | 64 | 0 | 1.0 | 3.0 | 0.00 | 0.00 | 0.00 | 36 | 1017.3 |
| 20260507082245 | 64 | 0 | 1.0 | 3.0 | 0.00 | 0.00 | 0.00 | 35 | 1017.2 |
| 20260507081927 | 65 | 0 | 1.0 | 3.0 | 0.00 | 0.00 | 0.00 | 35 | 1017.3 |
| 20260507081604 | 65 | 0 | 1.0 | 3.0 | 0.00 | 0.00 | 0.00 | 35 | 1017.3 |
| 20260507081246 | 65 | 0 | 1.0 | 2.0 | 0.00 | 0.00 | 0.00 | 35 | 1017.3 |
| 20260507080930 | 65 | 0 | 1.0 | 2.0 | 0.00 | 0.00 | 0.00 | 35 | 1017.2 |
| 20260507080308 | 65 | 0 | 0.0 | 1.0 | 0.00 | 0.00 | 0.00 | 35 | 1017.2 |
| 20260507075950 | 65 | 0 | 0.0 | 3.0 | 0.00 | 0.00 | 0.00 | 35 | 1017.2 |
| 20260507075325 | 65 | 0 | 0.0 | 3.0 | 0.00 | 0.00 | 0.00 | 36 | 1017.2 |
| 20260507074703 | 65 | 0 | 0.0 | 3.0 | 0.00 | 0.00 | 0.00 | 36 | 1017.2 |
| 20260507074344 | 66 | 0 | 0.0 | 3.0 | 0.00 | 0.00 | 0.00 | 37 | 1017.1 |
| 20260507074024 | 66 | 0 | 0.0 | 2.0 | 0.00 | 0.00 | 0.00 | 36 | 1017.1 |
| 20260507073704 | 66 | 0 | 0.0 | 0.0 | 0.00 | 0.00 | 0.00 | 37 | 1017.1 |
| 20260507073045 | 66 | 0 | 0.0 | 0.0 | 0.00 | 0.00 | 0.00 | 37 | 1017.1 |
| 20260507072721 | 66 | 0 | 0.0 | 0.0 | 0.00 | 0.00 | 0.00 | 37 | 1017.1 |
| 20260507072359 | 66 | 0 | 1.0 | 3.0 | 0.00 | 0.00 | 0.00 | 37 | 1017.1 |
| 20260507072039 | 66 | 0 | 1.0 | 3.0 | 0.00 | 0.00 | 0.00 | 37 | 1017.1 |
| 20260507071717 | 66 | 0 | 1.0 | 3.0 | 0.00 | 0.00 | 0.00 | 37 | 1017.1 |
| 20260507071354 | 66 | 0 | 1.0 | 3.0 | 0.00 | 0.00 | 0.00 | 37 | 1017.0 |
| 20260507071030 | 66 | 0 | 1.0 | 2.0 | 0.00 | 0.00 | 0.00 | 37 | 1017.0 |
| 20260507070709 | 66 | 0 | 1.0 | 3.0 | 0.00 | 0.00 | 0.00 | 37 | 1016.8 |
| 20260507070351 | 66 | 0 | 1.0 | 3.0 | 0.00 | 0.00 | 0.00 | 36 | 1016.8 |
| 20260507065733 | 66 | 0 | 1.0 | 3.0 | 0.00 | 0.00 | 0.00 | 35 | 1016.7 |
| 20260507065407 | 67 | 0 | 1.0 | 3.0 | 0.00 | 0.00 | 0.00 | 35 | 1016.7 |
| 20260507065049 | 67 | 0 | 1.0 | 3.0 | 0.00 | 0.00 | 0.00 | 35 | 1016.7 |
| 20260507064426 | 67 | 0 | 1.0 | 2.0 | 0.00 | 0.00 | 0.00 | 35 | 1016.7 |
| 20260507064106 | 67 | 0 | 1.0 | 2.0 | 0.00 | 0.00 | 0.00 | 34 | 1016.6 |
| 20260507063750 | 67 | 0 | 0.0 | 2.0 | 0.00 | 0.00 | 0.00 | 34 | 1016.5 |
| 20260507063435 | 67 | 0 | 0.0 | 1.0 | 0.00 | 0.00 | 0.00 | 34 | 1016.4 |
| 20260507063113 | 68 | 0 | 0.0 | 0.0 | 0.00 | 0.00 | 0.00 | 34 | 1016.4 |
| 20260507062747 | 68 | 0 | 0.0 | 0.0 | 0.00 | 0.00 | 0.00 | 34 | 1016.4 |
| 20260507062432 | 68 | 0 | 0.0 | 0.0 | 0.00 | 0.00 | 0.00 | 34 | 1016.3 |
| 20260507062116 | 68 | 0 | 0.0 | 0.0 | 0.00 | 0.00 | 0.00 | 33 | 1016.3 |
| 20260507061757 | 68 | 0 | 0.0 | 0.0 | 0.00 | 0.00 | 0.00 | 33 | 1016.2 |
| 20260507061440 | 68 | 0 | 0.0 | 0.0 | 0.00 | 0.00 | 0.00 | 33 | 1016.3 |
| 20260507060819 | 68 | 0 | 1.0 | 2.0 | 0.00 | 0.00 | 0.00 | 33 | 1016.1 |
| 20260507060457 | 68 | 0 | 1.0 | 2.0 | 0.00 | 0.00 | 0.00 | 32 | 1016.0 |
| 20260507060134 | 69 | 0 | 1.0 | 2.0 | 0.00 | 0.00 | 0.00 | 32 | 1015.9 |
| 20260507055809 | 69 | 0 | 0.0 | 2.0 | 0.00 | 0.00 | 0.00 | 32 | 1015.9 |
| 20260507055452 | 69 | 0 | 0.0 | 1.0 | 0.00 | 0.00 | 0.00 | 32 | 1015.9 |
| 20260507055134 | 69 | 0 | 0.0 | 0.0 | 0.00 | 0.00 | 0.00 | 32 | 1015.9 |
| 20260507054820 | 69 | 0 | 1.0 | 2.0 | 0.00 | 0.00 | 0.00 | 32 | 1015.8 |
| 20260507054505 | 69 | 0 | 1.0 | 2.0 | 0.00 | 0.00 | 0.00 | 32 | 1015.8 |
| 20260507054142 | 69 | 0 | 1.0 | 2.0 | 0.00 | 0.00 | 0.00 | 31 | 1015.8 |
| 20260507053820 | 69 | 0 | 1.0 | 1.0 | 0.00 | 0.00 | 0.00 | 31 | 1015.9 |
| 20260507053501 | 70 | 0 | 1.0 | 3.0 | 0.00 | 0.00 | 0.00 | 31 | 1015.8 |
| 20260507053138 | 70 | 0 | 0.0 | 3.0 | 0.00 | 0.00 | 0.00 | 31 | 1015.7 |
| 20260507052814 | 70 | 0 | 0.0 | 3.0 | 0.00 | 0.00 | 0.00 | 31 | 1015.6 |
| 20260507052154 | 70 | 0 | 1.0 | 3.0 | 0.00 | 0.00 | 0.00 | 30 | 1015.7 |
| 20260507051829 | 70 | 0 | 1.0 | 3.0 | 0.00 | 0.00 | 0.00 | 30 | 1015.6 |
| 20260507051506 | 70 | 0 | 1.0 | 3.0 | 0.00 | 0.00 | 0.00 | 30 | 1015.6 |
| 20260507051148 | 70 | 0 | 0.0 | 2.0 | 0.00 | 0.00 | 0.00 | 30 | 1015.6 |
| 20260507050523 | 71 | 0 | 1.0 | 2.0 | 0.00 | 0.00 | 0.00 | 30 | 1015.6 |
| 20260507050207 | 71 | 0 | 0.0 | 2.0 | 0.00 | 0.00 | 0.00 | 30 | 1015.6 |
| 20260507045844 | 71 | 0 | 0.0 | 3.0 | 0.00 | 0.00 | 0.00 | 29 | 1015.6 |
| 20260507045530 | 71 | 0 | 0.0 | 3.0 | 0.00 | 0.00 | 0.00 | 29 | 1015.6 |
| 20260507045210 | 71 | 0 | 1.0 | 3.0 | 0.00 | 0.00 | 0.00 | 29 | 1015.5 |
| 20260507044850 | 72 | 0 | 1.0 | 3.0 | 0.00 | 0.00 | 0.00 | 29 | 1015.5 |
| 20260507043924 | 72 | 0 | 1.0 | 3.0 | 0.00 | 0.00 | 0.00 | 28 | 1015.4 |
| 20260507043608 | 72 | 0 | 1.0 | 3.0 | 0.00 | 0.00 | 0.00 | 28 | 1015.3 |
| 20260507042947 | 73 | 0 | 0.0 | 2.0 | 0.00 | 0.00 | 0.00 | 28 | 1015.3 |
| 20260507042628 | 73 | 0 | 0.0 | 2.0 | 0.00 | 0.00 | 0.00 | 28 | 1015.3 |
| 20260507041706 | 73 | 0 | 0.0 | 1.0 | 0.00 | 0.00 | 0.00 | 28 | 1015.2 |
| 20260507041342 | 74 | 0 | 0.0 | 0.0 | 0.00 | 0.00 | 0.00 | 27 | 1015.2 |
| 20260507041017 | 74 | 0 | 0.0 | 0.0 | 0.00 | 0.00 | 0.00 | 27 | 1015.1 |
| 20260507040700 | 74 | 0 | 0.0 | 0.0 | 0.00 | 0.00 | 0.00 | 26 | 1015.1 |
| 20260507040343 | 74 | 0 | 0.0 | 0.0 | 0.00 | 0.00 | 0.00 | 26 | 1015.0 |
| 20260507040021 | 75 | 0 | 0.0 | 0.0 | 0.00 | 0.00 | 0.00 | 26 | 1015.0 |
| 20260507035357 | 75 | 0 | 0.0 | 0.0 | 0.00 | 0.00 | 0.00 | 25 | 1014.9 |
| 20260507035040 | 75 | 0 | 0.0 | 0.0 | 0.00 | 0.00 | 0.00 | 25 | 1014.9 |
| 20260507034724 | 76 | 0 | 0.0 | 0.0 | 0.00 | 0.00 | 0.00 | 24 | 1014.9 |
| 20260507034404 | 76 | 0 | 0.0 | 0.0 | 0.00 | 0.00 | 0.00 | 24 | 1014.9 |
| 20260507034042 | 76 | 0 | 0.0 | 0.0 | 0.00 | 0.00 | 0.00 | 24 | 1014.9 |
| 20260507033719 | 76 | 0 | 0.0 | 0.0 | 0.00 | 0.00 | 0.00 | 24 | 1014.8 |
| 20260507033404 | 77 | 0 | 0.0 | 0.0 | 0.00 | 0.00 | 0.00 | 23 | 1014.8 |
| 20260507033048 | 77 | 0 | 0.0 | 0.0 | 0.00 | 0.00 | 0.00 | 23 | 1014.7 |
| 20260507032733 | 77 | 0 | 0.0 | 0.0 | 0.00 | 0.00 | 0.00 | 23 | 1014.7 |
| 20260507032116 | 78 | 0 | 0.0 | 0.0 | 0.00 | 0.00 | 0.00 | 22 | 1014.5 |
| 20260507031455 | 79 | 0 | 1.0 | 3.0 | 0.00 | 0.00 | 0.00 | 22 | 1014.4 |
| 20260507031138 | 79 | 0 | 1.0 | 3.0 | 0.00 | 0.00 | 0.00 | 22 | 1014.4 |
| 20260507030817 | 79 | 0 | 1.0 | 3.0 | 0.00 | 0.00 | 0.00 | 22 | 1014.3 |
| 20260507030459 | 79 | 0 | 1.0 | 3.0 | 0.00 | 0.00 | 0.00 | 22 | 1014.4 |
| 20260507025843 | 79 | 0 | 0.0 | 4.0 | 0.00 | 0.00 | 0.00 | 21 | 1014.2 |
| 20260507025519 | 80 | 0 | 1.0 | 4.0 | 0.00 | 0.00 | 0.00 | 21 | 1014.2 |
| 20260507025204 | 80 | 0 | 1.0 | 5.0 | 0.00 | 0.00 | 0.00 | 21 | 1014.1 |
| 20260507024546 | 80 | 0 | 2.0 | 5.0 | 0.00 | 0.00 | 0.00 | 21 | 1014.1 |
| 20260507023930 | 80 | 0 | 2.0 | 5.0 | 0.00 | 0.00 | 0.00 | 21 | 1014.0 |
| 20260507023612 | 80 | 0 | 2.0 | 5.0 | 0.00 | 0.00 | 0.00 | 21 | 1013.9 |
| 20260507022951 | 80 | 0 | 1.0 | 4.0 | 0.00 | 0.00 | 0.00 | 21 | 1013.9 |
| 20260507022632 | 80 | 0 | 2.0 | 4.0 | 0.00 | 0.00 | 0.00 | 21 | 1013.9 |
| 20260507021709 | 81 | 0 | 1.0 | 5.0 | 0.00 | 0.00 | 0.00 | 21 | 1013.8 |
| 20260507021354 | 81 | 0 | 1.0 | 5.0 | 0.00 | 0.00 | 0.00 | 20 | 1013.7 |
| 20260507021036 | 81 | 0 | 2.0 | 5.0 | 0.00 | 0.00 | 0.00 | 20 | 1013.7 |
| 20260507020712 | 81 | 0 | 2.0 | 6.0 | 0.00 | 0.00 | 0.00 | 20 | 1013.8 |
| 20260507020056 | 81 | 0 | 3.0 | 6.0 | 0.00 | 0.00 | 0.00 | 20 | 1013.7 |
| 20260507015738 | 81 | 0 | 3.0 | 6.0 | 0.00 | 0.00 | 0.00 | 20 | 1013.7 |
| 20260507015416 | 82 | 123 | 2.0 | 6.0 | 0.00 | 0.00 | 0.00 | 20 | 1013.7 |
| 20260507015053 | 82 | 159 | 2.0 | 6.0 | 0.00 | 0.00 | 0.00 | 20 | 1013.8 |
| 20260507014738 | 82 | 126 | 2.0 | 6.0 | 0.00 | 0.00 | 0.00 | 20 | 1013.7 |
| 20260507014413 | 82 | 171 | 2.0 | 6.0 | 0.00 | 0.00 | 0.00 | 20 | 1013.7 |
| 20260507014058 | 82 | 120 | 2.0 | 6.0 | 0.00 | 0.00 | 0.00 | 20 | 1013.7 |
| 20260507013431 | 82 | 156 | 2.0 | 8.0 | 0.00 | 0.00 | 0.00 | 20 | 1013.7 |
| 20260507013111 | 82 | 131 | 3.0 | 8.0 | 0.00 | 0.00 | 0.00 | 20 | 1013.7 |
| 20260507012750 | 82 | 200 | 3.0 | 8.0 | 0.00 | 0.00 | 0.00 | 20 | 1013.7 |
| 20260507012431 | 82 | 155 | 3.0 | 8.0 | 0.00 | 0.00 | 0.00 | 20 | 1013.7 |
| 20260507011809 | 82 | 171 | 3.0 | 7.0 | 0.00 | 0.00 | 0.00 | 19 | 1013.7 |
| 20260507011453 | 82 | 138 | 2.0 | 7.0 | 0.00 | 0.00 | 0.00 | 19 | 1013.8 |
| 20260507010811 | 83 | 189 | 1.0 | 9.0 | 0.00 | 0.00 | 0.00 | 19 | 1013.8 |
| 20260507010453 | 83 | 263 | 2.0 | 9.0 | 0.00 | 0.00 | 0.00 | 19 | 1013.8 |
| 20260507010137 | 83 | 186 | 3.0 | 9.0 | 0.00 | 0.00 | 0.00 | 19 | 1013.8 |
| 20260507005811 | 83 | 176 | 3.0 | 9.0 | 0.00 | 0.00 | 0.00 | 19 | 1013.9 |
| 20260507005456 | 83 | 150 | 3.0 | 9.0 | 0.00 | 0.00 | 0.00 | 19 | 1013.8 |
| 20260507005133 | 83 | 165 | 3.0 | 8.0 | 0.00 | 0.00 | 0.00 | 19 | 1013.9 |
| 20260507004814 | 83 | 193 | 2.0 | 7.0 | 0.00 | 0.00 | 0.00 | 20 | 1013.9 |
| 20260507004451 | 83 | 92 | 2.0 | 8.0 | 0.00 | 0.00 | 0.00 | 20 | 1013.9 |
| 20260507003832 | 83 | 193 | 3.0 | 8.0 | 0.00 | 0.00 | 0.00 | 20 | 1014.0 |
| 20260507003517 | 83 | 150 | 4.0 | 12.0 | 0.00 | 0.00 | 0.00 | 19 | 1013.9 |
| 20260507003155 | 83 | 137 | 4.0 | 12.0 | 0.00 | 0.00 | 0.00 | 19 | 1014.0 |
| 20260507002834 | 84 | 127 | 4.0 | 12.0 | 0.00 | 0.00 | 0.00 | 20 | 1013.9 |
| 20260507002515 | 84 | 121 | 5.0 | 12.0 | 0.00 | 0.00 | 0.00 | 19 | 1013.9 |
| 20260507001900 | 84 | 163 | 5.0 | 12.0 | 0.00 | 0.00 | 0.00 | 19 | 1013.9 |
| 20260507001537 | 84 | 159 | 4.0 | 11.0 | 0.00 | 0.00 | 0.00 | 20 | 1013.9 |
| 20260507001223 | 84 | 175 | 3.0 | 10.0 | 0.00 | 0.00 | 0.00 | 19 | 1013.8 |
| 20260507000900 | 85 | 132 | 4.0 | 10.0 | 0.00 | 0.00 | 0.00 | 19 | 1013.9 |
| 20260507000542 | 85 | 151 | 5.0 | 10.0 | 0.00 | 0.00 | 0.00 | 20 | 1013.9 |
| 20260507000226 | 85 | 102 | 5.0 | 10.0 | 0.00 | 0.00 | 0.00 | 19 | 1013.9 |
| 20260506235903 | 85 | 132 | 4.0 | 9.0 | 0.00 | 0.00 | 0.00 | 19 | 1013.9 |
| 20260506235547 | 85 | 155 | 2.0 | 9.0 | 0.00 | 0.00 | 0.00 | 19 | 1013.9 |
| 20260506235231 | 84 | 144 | 2.0 | 6.0 | 0.00 | 0.00 | 0.00 | 19 | 1013.9 |
| 20260506234913 | 84 | 167 | 2.0 | 8.0 | 0.00 | 0.00 | 0.00 | 19 | 1013.9 |
| 20260506234557 | 84 | 159 | 2.0 | 8.0 | 0.00 | 0.00 | 0.00 | 19 | 1014.0 |
| 20260506234239 | 84 | 199 | 2.0 | 8.0 | 0.00 | 0.00 | 0.00 | 19 | 1014.0 |
| 20260506233918 | 84 | 200 | 3.0 | 12.0 | 0.00 | 0.00 | 0.00 | 19 | 1014.0 |
| 20260506233604 | 84 | 278 | 4.0 | 12.0 | 0.00 | 0.00 | 0.00 | 20 | 1014.0 |
| 20260506233240 | 84 | 204 | 4.0 | 12.0 | 0.00 | 0.00 | 0.00 | 19 | 1014.1 |
| 20260506232625 | 85 | 161 | 5.0 | 12.0 | 0.00 | 0.00 | 0.00 | 19 | 1014.1 |
| 20260506232300 | 85 | 238 | 5.0 | 12.0 | 0.00 | 0.00 | 0.00 | 19 | 1014.2 |
| 20260506231336 | 84 | 161 | 4.0 | 9.0 | 0.00 | 0.00 | 0.00 | 20 | 1014.3 |
| 20260506231014 | 83 | 126 | 3.0 | 15.0 | 0.00 | 0.00 | 0.00 | 20 | 1014.4 |
| 20260506230659 | 83 | 88 | 3.0 | 15.0 | 0.00 | 0.00 | 0.00 | 20 | 1014.4 |
| 20260506230343 | 83 | 196 | 3.0 | 15.0 | 0.00 | 0.00 | 0.00 | 19 | 1014.5 |
| 20260506230025 | 84 | 198 | 5.0 | 15.0 | 0.00 | 0.00 | 0.00 | 19 | 1014.5 |
| 20260506225709 | 84 | 159 | 5.0 | 15.0 | 0.00 | 0.00 | 0.00 | 19 | 1014.5 |
| 20260506225344 | 85 | 162 | 6.0 | 15.0 | 0.00 | 0.00 | 0.00 | 20 | 1014.5 |
| 20260506225024 | 85 | 154 | 5.0 | 13.0 | 0.00 | 0.00 | 0.00 | 21 | 1014.5 |
| 20260506224700 | 85 | 105 | 6.0 | 13.0 | 0.00 | 0.00 | 0.00 | 22 | 1014.6 |
| 20260506224336 | 84 | 138 | 5.0 | 13.0 | 0.00 | 0.00 | 0.00 | 20 | 1014.6 |
| 20260506224017 | 84 | 220 | 6.0 | 13.0 | 0.00 | 0.00 | 0.00 | 20 | 1014.5 |
| 20260506223658 | 85 | 203 | 5.0 | 13.0 | 0.00 | 0.00 | 0.00 | 23 | 1014.7 |
| 20260506223338 | 85 | 178 | 5.0 | 13.0 | 0.00 | 0.00 | 0.00 | 19 | 1014.8 |
| 20260506223016 | 85 | 150 | 4.0 | 9.0 | 0.00 | 0.00 | 0.00 | 20 | 1014.8 |
| 20260506222653 | 86 | 271 | 5.0 | 9.0 | 0.00 | 0.00 | 0.00 | 20 | 1014.9 |
| 20260506222335 | 86 | 69 | 3.0 | 9.0 | 0.00 | 0.00 | 0.00 | 20 | 1014.9 |
| 20260506222011 | 86 | 114 | 3.0 | 9.0 | 0.00 | 0.00 | 0.00 | 21 | 1015.1 |
| 20260506221653 | 85 | 103 | 3.0 | 9.0 | 0.00 | 0.00 | 0.00 | 21 | 1015.1 |
| 20260506221338 | 85 | 310 | 4.0 | 9.0 | 0.00 | 0.00 | 0.00 | 19 | 1015.1 |
| 20260506221019 | 85 | 322 | 4.0 | 9.0 | 0.00 | 0.00 | 0.00 | 19 | 1015.2 |
| 20260506220659 | 85 | 101 | 3.0 | 8.0 | 0.00 | 0.00 | 0.00 | 23 | 1015.1 |
| 20260506220344 | 84 | 135 | 3.0 | 8.0 | 0.00 | 0.00 | 0.00 | 20 | 1015.2 |
| 20260506220022 | 84 | 103 | 3.0 | 11.0 | 0.00 | 0.00 | 0.00 | 20 | 1015.2 |
| 20260506215701 | 85 | 124 | 5.0 | 11.0 | 0.00 | 0.00 | 0.00 | 22 | 1015.3 |
| 20260506215335 | 86 | 103 | 6.0 | 11.0 | 0.00 | 0.00 | 0.00 | 19 | 1015.4 |
| 20260506215017 | 86 | 99 | 5.0 | 11.0 | 0.00 | 0.00 | 0.00 | 22 | 1015.5 |
| 20260506214655 | 85 | 134 | 3.0 | 11.0 | 0.00 | 0.00 | 0.00 | 22 | 1015.5 |
| 20260506214333 | 84 | 136 | 3.0 | 11.0 | 0.00 | 0.00 | 0.00 | 21 | 1015.6 |
| 20260506214011 | 84 | 355 | 4.0 | 14.0 | 0.00 | 0.00 | 0.00 | 21 | 1015.6 |
| 20260506213652 | 85 | 165 | 5.0 | 14.0 | 0.00 | 0.00 | 0.00 | 20 | 1015.7 |
| 20260506213335 | 85 | 82 | 6.0 | 14.0 | 0.00 | 0.00 | 0.00 | 22 | 1015.7 |
| 20260506213015 | 85 | 96 | 5.0 | 16.0 | 0.00 | 0.00 | 0.00 | 21 | 1015.8 |
| 20260506212657 | 85 | 90 | 6.0 | 16.0 | 0.00 | 0.00 | 0.00 | 23 | 1015.9 |
| 20260506212040 | 85 | 117 | 7.0 | 16.0 | 0.00 | 0.00 | 0.00 | 20 | 1016.0 |
| 20260506211718 | 85 | 158 | 6.0 | 16.0 | 0.00 | 0.00 | 0.00 | 20 | 1016.0 |
| 20260506211358 | 85 | 136 | 6.0 | 16.0 | 0.00 | 0.00 | 0.00 | 21 | 1016.1 |
| 20260506211035 | 85 | 136 | 4.0 | 11.0 | 0.00 | 0.00 | 0.00 | 21 | 1016.1 |
| 20260506210714 | 85 | 92 | 4.0 | 10.0 | 0.00 | 0.00 | 0.00 | 23 | 1016.0 |
| 20260506210057 | 84 | 71 | 4.0 | 13.0 | 0.00 | 0.00 | 0.00 | 23 | 1016.2 |
| 20260506205435 | 84 | 93 | 5.0 | 13.0 | 0.00 | 0.00 | 0.00 | 23 | 1016.2 |
| 20260506205111 | 85 | 239 | 5.0 | 13.0 | 0.00 | 0.00 | 0.00 | 23 | 1016.3 |
| 20260506204753 | 84 | 140 | 5.0 | 13.0 | 0.00 | 0.00 | 0.00 | 21 | 1016.4 |
| 20260506204432 | 84 | 103 | 3.0 | 11.0 | 0.00 | 0.00 | 0.00 | 23 | 1016.4 |
| 20260506204113 | 83 | 165 | 3.0 | 11.0 | 0.00 | 0.00 | 0.00 | 21 | 1016.4 |
| 20260506203755 | 84 | 158 | 4.0 | 11.0 | 0.00 | 0.00 | 0.00 | 21 | 1016.4 |
| 20260506203141 | 85 | 59 | 5.0 | 11.0 | 0.00 | 0.00 | 0.00 | 21 | 1016.5 |
| 20260506202819 | 85 | 100 | 5.0 | 11.0 | 0.00 | 0.00 | 0.00 | 23 | 1016.4 |
| 20260506202454 | 84 | 92 | 5.0 | 9.0 | 0.00 | 0.00 | 0.00 | 25 | 1016.5 |
| 20260506202138 | 83 | 155 | 4.0 | 11.0 | 0.00 | 0.00 | 0.00 | 24 | 1016.5 |
| 20260506201821 | 83 | 173 | 3.0 | 11.0 | 0.00 | 0.00 | 0.00 | 22 | 1016.5 |
| 20260506201455 | 84 | 146 | 3.0 | 11.0 | 0.00 | 0.00 | 0.00 | 22 | 1016.5 |
| 20260506201137 | 84 | 51 | 3.0 | 11.0 | 0.00 | 0.00 | 0.00 | 24 | 1016.5 |
| 20260506200816 | 84 | 77 | 5.0 | 11.0 | 0.00 | 0.00 | 0.00 | 24 | 1016.5 |
| 20260506200500 | 84 | 112 | 5.0 | 11.0 | 0.00 | 0.00 | 0.00 | 22 | 1016.6 |
| 20260506200142 | 84 | 42 | 5.0 | 10.0 | 0.00 | 0.00 | 0.00 | 24 | 1016.6 |
| 20260506195526 | 83 | 113 | 3.0 | 12.0 | 0.00 | 0.00 | 0.00 | 25 | 1016.7 |
| 20260506195202 | 83 | 114 | 4.0 | 12.0 | 0.00 | 0.00 | 0.00 | 24 | 1016.7 |
| 20260506194846 | 82 | 113 | 5.0 | 12.0 | 0.00 | 0.00 | 0.00 | 23 | 1016.7 |
| 20260506194520 | 83 | 122 | 4.0 | 12.0 | 0.00 | 0.00 | 0.00 | 22 | 1016.7 |
| 20260506194158 | 83 | 140 | 3.0 | 12.0 | 0.00 | 0.00 | 0.00 | 26 | 1016.8 |
| 20260506193834 | 83 | 65 | 2.0 | 9.0 | 0.00 | 0.00 | 0.00 | 24 | 1016.9 |
| 20260506193519 | 83 | 186 | 2.0 | 9.0 | 0.00 | 0.00 | 0.00 | 23 | 1016.9 |
| 20260506193203 | 82 | 79 | 2.0 | 9.0 | 0.00 | 0.00 | 0.00 | 23 | 1016.9 |
| 20260506192844 | 81 | 136 | 3.0 | 9.0 | 0.00 | 0.00 | 0.00 | 22 | 1017.0 |
| 20260506192524 | 82 | 59 | 3.0 | 9.0 | 0.00 | 0.00 | 0.00 | 22 | 1017.0 |
| 20260506192208 | 83 | 67 | 2.0 | 9.0 | 0.00 | 0.00 | 0.00 | 24 | 1017.1 |
| 20260506191842 | 83 | 86 | 1.0 | 8.0 | 0.00 | 0.00 | 0.00 | 24 | 1017.1 |
| 20260506191524 | 81 | 86 | 2.0 | 8.0 | 0.00 | 0.00 | 0.00 | 23 | 1017.1 |
| 20260506191206 | 82 | 331 | 3.0 | 8.0 | 0.00 | 0.00 | 0.00 | 24 | 1017.2 |
| 20260506190841 | 81 | 123 | 3.0 | 9.0 | 0.00 | 0.00 | 0.00 | 27 | 1017.3 |
| 20260506185918 | 79 | 111 | 1.0 | 10.0 | 0.00 | 0.00 | 0.00 | 25 | 1017.4 |
| 20260506185556 | 79 | 282 | 2.0 | 10.0 | 0.00 | 0.00 | 0.00 | 25 | 1017.4 |
| 20260506185239 | 79 | 111 | 3.0 | 10.0 | 0.00 | 0.00 | 0.00 | 24 | 1017.5 |
| 20260506184916 | 79 | 155 | 4.0 | 10.0 | 0.00 | 0.00 | 0.00 | 28 | 1017.5 |
| 20260506184557 | 79 | 183 | 4.0 | 10.0 | 0.00 | 0.00 | 0.00 | 24 | 1017.5 |
| 20260506184242 | 80 | 152 | 4.0 | 10.0 | 0.00 | 0.00 | 0.00 | 24 | 1017.6 |
| 20260506183926 | 81 | 157 | 4.0 | 10.0 | 0.00 | 0.00 | 0.00 | 26 | 1017.5 |
| 20260506183606 | 80 | 122 | 3.0 | 9.0 | 0.00 | 0.00 | 0.00 | 24 | 1017.5 |
| 20260506183239 | 78 | 167 | 3.0 | 7.0 | 0.00 | 0.00 | 0.00 | 25 | 1017.6 |
| 20260506182613 | 79 | 121 | 3.0 | 7.0 | 0.00 | 0.00 | 0.00 | 25 | 1017.5 |
| 20260506182253 | 78 | 133 | 2.0 | 7.0 | 0.00 | 0.00 | 0.00 | 27 | 1017.5 |
| 20260506181932 | 78 | 209 | 2.0 | 7.0 | 0.00 | 0.00 | 0.00 | 24 | 1017.6 |
| 20260506181307 | 79 | 105 | 3.0 | 7.0 | 0.00 | 0.00 | 0.00 | 25 | 1017.6 |
| 20260506180949 | 79 | 57 | 3.0 | 8.0 | 0.00 | 0.00 | 0.00 | 27 | 1017.6 |
| 20260506180628 | 79 | 30 | 3.0 | 8.0 | 0.00 | 0.00 | 0.00 | 26 | 1017.6 |